Tracking 29790 objects as of 12-Oct-2024
HD Live streaming from Space Station
objects crossing your sky now

SL-14 DEB

Track SL-14 DEB now!
10-day predictions


NORAD ID: 45303
Int'l Code: 1991-056AR
Perigee: 843.3 km
Apogee: 1,041.6 km
Inclination: 82.6 °
Period: 103.7 minutes
Semi major axis: 7313 km
RCS: Unknown
Launch date: August 15, 1991
Source: Commonwealth of Independent States (former USSR) (CIS)
Launch site: PLESETSK MISSILE AND SPACE COMPLEX (PKMTR)

Note: This is SATELLITE DEBRIS
Your satellite tracking list
Your tracking list is empty




NASA's NSSDC Master Catalog

Two Line Element Set (TLE):
1 45303U 91056AR  24285.85307234  .00065446  00000-0  50609-1 0  9995
2 45303  82.6290 124.5371 0135563 144.9422 216.0759 13.88100755230470
Source of the keplerian elements: AFSPC